Location: Seattle
(47.6064°N, 122.3308°W)
Time: 23:49:48
(UTC-07:00)

COSMOS 2251 DEB - Visible Passes

Search period start: 20 May 2024 00:00
Search period end: 30 May 2024 00:00
Orbit: 750 x 779 km, 74.0° (Epoch: 20 May)

Date Brightness Start Highest point End Pass type
(mag) Time Alt. Az. Time Alt. Az. Time Alt. Az.
20 May ? 01:31:15 33° SE 01:32:18 37° ESE 01:37:02 10° NE visible
20 May ? 03:11:26 20° WSW 03:14:19 34° WNW 03:19:02 10° N visible
21 May ? 00:53:46 22° ESE 00:54:30 22° E 00:58:27 10° NE visible
21 May ? 02:33:57 32° SW 02:36:06 54° WNW 02:41:12 10° NNE visible
21 May ? 04:17:54 10° WNW 04:19:21 11° NW 04:20:48 10° NNW visible
22 May ? 00:16:16 13° E 00:16:49 13° E 00:19:11 10° ENE visible
22 May ? 01:56:27 47° SSW 01:58:00 88° WNW 02:03:12 10° NNE visible
22 May ? 03:37:33 10° W 03:40:48 16° NW 03:44:02 10° N visible
23 May ? 01:18:54 46° SSE 01:20:01 56° ESE 01:25:04 10° NNE visible
23 May ? 02:59:05 14° W 03:02:22 24° NW 03:06:34 10° N visible
24 May ? 00:41:20 32° ESE 00:42:07 33° ESE 00:46:44 10° NE visible
24 May ? 02:21:30 23° WSW 02:24:02 37° WNW 02:28:51 10° N visible
25 May ? 00:03:43 20° ESE 00:04:20 20° E 00:08:03 10° NE visible
25 May ? 01:43:53 36° SW 01:45:51 60° WNW 01:50:58 10° NNE visible
25 May ? 03:27:03 10° WNW 03:28:59 12° NW 03:30:57 10° NNW visible
25 May ? 23:26:05 12° E 23:26:39 12° E 23:28:25 10° ENE visible
26 May ? 01:06:15 48° SSW 01:07:45 84° ESE 01:12:56 10° NNE visible
26 May ? 02:46:58 10° W 02:50:27 18° NW 02:53:55 10° N visible
27 May ? 00:28:34 42° SSE 00:29:45 50° ESE 00:34:45 10° NNE visible
27 May ? 02:08:43 15° WSW 02:12:01 26° NW 02:16:22 10° N visible
27 May ? 23:50:50 28° ESE 23:51:52 30° E 23:56:19 10° NE visible
28 May ? 01:31:00 23° WSW 01:33:42 41° WNW 01:38:35 10° N visible
28 May ? 23:13:04 17° ESE 23:14:04 18° E 23:17:31 10° NE visible
29 May ? 00:53:14 33° SW 00:55:30 66° WNW 01:00:39 10° NNE visible
29 May ? 02:36:12 10° WNW 02:38:33 13° NW 02:40:55 10° NNW visible
29 May ? 22:35:40 10° E 22:36:22 10° E 22:37:06 10° E visible
